PROXIMA II (43696 NORAD) Tracking and Keplerian Element Data

This shows tracking and keplerian element data for the satellite.

Feedback or suggestion? Click here.




ElementValue
Catalog43696
NamePROXIMA II
Epoch Orbit435
Epoch Day343.80687618
Epoch Year2018
RAAN84.055
Inclination85.0338
Eccentricity0.002047
Argument of Perigee159.6836
Mean Anonmoly200.5225
Mean Motion15.21043169
Decay Rate1.096E-05
L11 43696U 18088G 18343.80687618 .00001096 00000-0 47288-4 0 9995
L22 43696 85.0338 84.0550 0020470 159.6836 200.5225 15.21043169 4350

Live tracking and technical data element details for PROXIMA II (NORAD 43696). PROXIMA II can be tracked NOW for your location showing map with azimuth and elevation plus other details from your city location.

Track the satellite on the map from your city or location and see movement details for azimuth, elevation, latitude, longitude, range, height, and movement on the map or in text.







IsCatalogInMostPopularTable: catalog: 43696, numindb: 21
Update: records affected: 1



GetName: 43696 PROXIMA II

Hit Count: updated at: Tue, 11 Dec 2018 02:53:17 GMT